Air Resources Laboratory banner image
Air Resources Laboratory web site National Oceanic and Atmospheric Administration (NOAA)

id roundup


Office: BOI

ASUS45 KBOI 211910
RWRID

IDAHO REGIONAL WEATHER ROUNDUP
NATIONAL WEATHER SERVICE BOISE ID
1200 PM MST WED NOV 21 2018

NOTE: "FAIR" INDICATES FEW OR NO CLOUDS BELOW 12000 FEET
WITH NO SIGNIFICANT WEATHER AND/OR OBSTRUCTIONS TO VISIBILITY

IDZ012-014-212000-
SOUTHWEST IDAHO


CITY           SKY/WX    TMP DP  RH WIND       PRES   REMARKS
BOISE          MOSUNNY   40  18  41 CALM      30.09F
CALDWELL       MOSUNNY   39  18  42 SE8       30.12F WCI  33
MOUNTAIN HOME  MOSUNNY   46  16  30 SE24      30.07F
$$

IDZ016-017-212000-
SOUTHCENTRAL IDAHO


CITY           SKY/WX    TMP DP  RH WIND       PRES   REMARKS
BURLEY         MOSUNNY   44  18  35 NE6       30.09F
JEROME         SUNNY     47  16  29 NE20      30.09F
TWIN FALLS     SUNNY     40  20  44 E7        30.09F
$$

IDZ019>023-212000-
SOUTHEAST IDAHO


CITY           SKY/WX    TMP DP  RH WIND       PRES   REMARKS
IDAHO FALLS    SUNNY     39  22  50 VRB5      30.18F
POCATELLO      SUNNY     43  16  33 N9        30.16F
REXBURG        SUNNY     40  21  46 NE5       30.17F
$$

IDZ006-010-011-018-031-032-212000-
CENTRAL IDAHO MOUNTAINS


CITY           SKY/WX    TMP DP  RH WIND       PRES   REMARKS
MCCALL         SUNNY     34  22  61 SW3       30.03F
HAILEY         MOSUNNY   41   7  24 NW7       30.14F
STANLEY          N/A     27  13  55 N3        30.12F
SALMON         MOSUNNY   32  19  58 CALM      30.14F
CHALLIS        PTSUNNY   32  16  51 E3        30.13F
$$

IDZ002-004-006-007-026-212000-
NORTHERN IDAHO


CITY           SKY/WX    TMP DP  RH WIND       PRES   REMARKS
LEWISTON       CLOUDY    40  29  64 CALM      29.94F
LOWELL           N/A     36  30  79 N7        30.05F WCI  30
COEUR D'ALENE  CLOUDY    34  29  82 NE14G21   29.95F WCI  25
MULLAN PASS    PTSUNNY   39  13  34 S6        29.93F WCI  35
$$




Office: LKN ASUS65 KLKN 211908 RTPLKN Regional Temperature And Precipitation Table...Midday National Weather Service Elko NV 1108 AM PST Wed Nov 21 2018 ***Automated Airport Stations*** Values represent lows over the last 12 hours... Highs over the last 24 hours and precipitation over the last 24 hours...ending at 10 AM PST/11 AM PDT today. .BR LKN 1121 P DH10/TAIRZX/DH10/TAIRZP/PPDRZZ/SFDRZZ/SDIRZZ : :ID Station Elev / Max / Min / Pcpn / :.................................................................... : EKO : Elko ASOS 5074 : 52 / 10 / 0.00 / ELY : Ely ASOS 6262 : 56 / 12 / 0.00 / P68 : Eureka ASOS 5936 : 53 / 8 / 0.00 / TPH : Tonopah ASOS 5395 : 57 / 24 / 0.00 / ENV : Wendover AWOS 4236 : 37 / 11 / 0.00 / WMC : Winnemucca ASOS 4314 : 54 / 9 / 0.00 / .END ***Manual synoptic reporting stations in north and central Nevada*** Values reflect the previous 24 hours ending at 10 AM PST/11 AM PDT *Snow stations may only report during periods of snowfall* .BR LKN 1121 P DH10/TAIRZX/TAIRZN/PPDRZZ/SFDRZZ/SDIRZZ : Snow Snow :ID Station Elev Max / Min / Pcpn / Fall / Dpth :.................................................................... : ELKN2 : Elko NWS Office 5235 : 49 / 5 / 0.00 / 0.0 / 0 EELN2 : Ely Snow 6487 : M / M / M / M / M EWIN2 : Winnemucca Snow 4355 : M / M / M / M / M .END ***Cooperative stations in north and central Nevada*** Values reflect the previous 24 hours Report time as indicated .BR LKN 1121 P DH04/TAIRZX/TAIRZN/PPDRZZ/SFDRZZ/SDIRZZ : Snow Snow :ID Station Elev Time / Max / Min / Pcpn / Fall / Dpth :.................................................................... : REON2 : Beowawe 49S 5740 7 AM: M / M / M / M / M BLEN2 : Blue Eagle Ranch 4768 9 AM: M / M / M / M / M EKAN2 : Eureka 6540 7 AM: 55 / 18 / 0.00 / 0.0 / M GBSN2 : Gabbs 1NE 4694 6 AM: 55 / 24 / 0.00 / 0.0 / 0 GIBN2 : Gibbs Ranch 5960 7 AM: M / M / M / M / M LENN2 : Great Basin NP 6824 8 AM: 45 / M / 0.00 / 0.0 / 0 JPTN2 : Jackpot 5295 10 AM: 53 / 5 / 0.00 / 0.0 / 0 JRGN2 : Jarbidge 6180 8 AM: 53 / 17 / 0.00 / 0.0 / 0 JIGN2 : Jiggs 8SSE 5800 7 AM: M / M / M / M / M KRVN2 : Kings River Vly 4240 8 AM: 49 / 8 / 0.00 / 0.0 / 0 LOIN2 : Lamoille 2N 5750 7 AM: 46 / 0 / 0.00 / 0.0 / 0 LUNN2 : Lund 5560 8 AM: M / M / M / M / M MCGN2 : McGill 6270 8 AM: 54 / 13 / 0.00 / 0.0 / 0 MONN2 : Montello 7NE 4828 8 AM: 46 / 4 / 0.00 / 0.0 / 0 MOMN2 : Moorman Ranch 6539 6 AM: 56 / 6 / 0.00 / 0.0 / 0 RBLN2 : Ruby Lake NWR 6010 7 AM: 51 / 10 / 0.00 / M / M RTHN2 : Ruth 6859 8 AM: 54 / 4 / 0.00 / 0.0 / 0 RNDN2 : Ryndon 5288 8 AM: M / M / M / M / M SFKN2 : South Fork SRA 5270 8 AM: 58 / -2 / 0.00 / 0.0 / M SUNN2 : Sunnyside 5297 7 AM: M / M / M / M / M TNPN2 : Tonopah 6010 7 AM: 53 / 25 / 0.00 / 0.0 / 0 WEHN2 : Wells 1SSW (DCP) 5676 7 AM: M / M / M / M / M PVYN2 : Wendover 16NW 4828 7 AM: 42 / 8 / 0.00 / 0.0 / 0 WGVN2 : Winnemucca 3SSW 4355 7 AM: 51 / 13 / 0.00 / 0.0 / 0 .END M = Missing data T = Trace amounts ASOS = Automated Surface Observing System AWOS = Automated Weather Observation System NWS = National Weather Service These data are preliminary and have not undergone final quality control (QC) by NCEI. Therefore, these data are subject to revision. Final and certified data can be accessed at the National Centers For Environmental Information (NCEI) - www.ncei.noaa.gov $$